[[{"header":{"parameterUnit":"m.s-1","parameterCategory":1,"la1":30.2992,"la2":30.254,"lo1":-89.0895,"lo2":-89.0443,"dy":0.0025,"dx":0.0025,"nx":19,"ny":19,"refTime":"2026-05-16T03:00:00:Z","depth":0,"parameterNumber":2,"parameterNumberName":"U-component_of_WINDS"},"data":[0,0,0,-1.545,-1.5451,-1.5525,-1.5525,-1.5622,-1.5622,0,0,0,0,0,0,0,0,0,0,0,-1.5428,-1.5429,-1.545,-1.5451,-1.5525,-1.5525,-1.5621,-1.5622,0,0,0,0,0,0,0,0,0,0,0,-1.5428,-1.5429,-1.543,-1.5452,-1.5525,-1.5525,-1.5621,-1.5565,0,0,0,0,0,0,0,0,0,0,-1.5493,-1.5474,-1.5429,-1.543,-1.5452,-1.5525,-1.5525,-1.5562,-1.5569,-1.5589,0,-1.5606,0,-1.5616,-1.5629,-1.5629,0,0,0,-1.5451,-1.5469,-1.5488,-1.543,-1.5453,-1.5525,-1.5492,-1.5566,-1.5573,-1.5597,-1.5608,-1.5611,-1.5617,-1.563,-1.563,-1.5746,-1.5747,0,0,-1.5447,-1.5442,-1.5483,-1.5493,-1.548,-1.5489,-1.5494,-1.557,-1.5581,-1.5608,-1.5613,-1.5619,-1.563,-1.5631,-1.5746,-1.5746,0,0,0,-1.5436,-1.5439,-1.5457,-1.5489,-1.5502,-1.5491,-1.5497,-1.5578,-1.5584,-1.5614,-1.562,-1.5631,-1.5632,-1.5745,-1.5746,-1.5768,0,0,0,-1.5433,-1.5432,-1.5455,-1.5452,-1.55,-1.5541,-1.5503,-1.5579,-1.5588,-1.562,-1.5631,-1.5633,-1.5744,-1.5745,-1.5766,-1.5781,0,0,0,-1.5423,-1.5431,-1.5442,-1.5452,-1.5483,-1.5539,-1.555,-1.5581,-1.5591,-1.5629,-1.5633,-1.5744,-1.5745,-1.5765,-1.5778,-1.5811,0,0,0,-1.5412,-1.5461,-1.5442,-1.5499,-1.5483,-1.5552,-1.5549,-1.5602,-1.5637,-1.5631,-1.5744,-1.5746,-1.5764,-1.5776,-1.5809,-1.5839,-1.585,0,0,-1.5471,-1.5467,-1.5501,-1.5487,-1.5559,-1.5541,-1.5617,-1.5654,-1.5663,-1.5718,-1.5721,-1.5767,-1.5778,-1.581,-1.5913,-1.5922,0,0,0,-1.5518,-1.5543,-1.5563,-1.5596,-1.5625,-1.5652,-1.5679,-1.5693,-1.574,-1.569,-1.5787,-1.5794,-1.5813,-1.5828,-1.5835,-1.5853,-1.5752,-1.5752,-1.5751,-1.5595,-1.5603,-1.5661,-1.5678,-1.571,-1.5737,-1.5764,-1.5788,-1.5786,-1.5809,-1.5826,-1.5887,-1.5904,-1.591,-1.5929,-1.5841,-1.5841,-1.5841,-1.5841,-1.5684,-1.5721,-1.5717,-1.5772,-1.578,-1.5827,-1.5855,-1.5852,-1.5897,-1.5875,-1.5893,-1.5869,-1.592,-1.5936,-1.5843,-1.5843,-1.5843,-1.5843,-1.5842,-1.5737,-1.5756,-1.5772,-1.5821,-1.5858,-1.5873,-1.5917,-1.5923,-1.5929,-1.5946,-1.5966,-1.5965,-1.5967,-1.5955,-1.5955,-1.5955,-1.5955,-1.5955,-1.5955,-1.5787,-1.5803,-1.5839,-1.5874,-1.5897,-1.5927,-1.5954,-1.5977,-1.6004,-1.6005,-1.6005,-1.6003,-1.5922,-1.5903,-1.5959,-1.5958,-1.5958,-1.5958,-1.5957,-1.5877,-1.5857,-1.5912,-1.5935,-1.5977,-1.6015,-1.6021,-1.6067,-1.6086,-1.6108,-1.6101,-1.604,-1.6038,-1.6032,-1.6016,-1.6098,-1.6098,-1.6098,-1.6098,-1.5923,-1.5922,-1.598,-1.6016,-1.6051,-1.6062,-1.6126,-1.6148,-1.6168,-1.6181,-1.6169,-1.6148,-1.6142,-1.6143,-1.6135,-1.6121,-1.6227,-1.6227,-1.6227,-1.598,-1.5983,-1.6035,-1.6053,-1.6087,-1.6116,-1.6176,-1.6219,-1.6237,-1.6233,-1.6191,-1.6186,-1.6152,-1.614,-1.6137,-1.6124,-1.6097,0,0]},{"header":{"parameterUnit":"m.s-1","parameterCategory":1,"la1":30.2992,"la2":30.254,"lo1":-89.0895,"lo2":-89.0443,"dy":0.0025,"dx":0.0025,"nx":19,"ny":19,"refTime":"2026-05-16T03:00:00:Z","depth":0,"parameterNumber":3,"parameterNumberName":"V-component_of_WINDS"},"data":[0,0,0,4.6369,4.6372,4.6491,4.6492,4.6653,4.6654,0,0,0,0,0,0,0,0,0,0,0,4.6342,4.6344,4.6369,4.6372,4.6491,4.6492,4.6652,4.6654,0,0,0,0,0,0,0,0,0,0,0,4.6342,4.6343,4.6345,4.6373,4.6491,4.6492,4.6652,4.6558,0,0,0,0,0,0,0,0,0,0,4.644,4.6425,4.6343,4.6345,4.6373,4.6491,4.6492,4.6554,4.6564,4.6603,0,4.6644,0,4.6652,4.6666,4.6667,0,0,0,4.6365,4.6417,4.6441,4.6346,4.6375,4.6491,4.6436,4.6559,4.6571,4.6617,4.6646,4.6651,4.6654,4.6667,4.6668,4.6924,4.6925,0,0,4.6358,4.6368,4.6433,4.6449,4.6435,4.6432,4.6439,4.6566,4.6597,4.6646,4.6655,4.6657,4.6668,4.667,4.6922,4.6924,0,0,0,4.6344,4.6364,4.6385,4.6443,4.6464,4.6435,4.6444,4.6591,4.6597,4.6657,4.6659,4.6669,4.6671,4.6921,4.6923,4.7007,0,0,0,4.634,4.6355,4.6382,4.6389,4.6462,4.653,4.6466,4.6588,4.6603,4.6658,4.6669,4.6673,4.6919,4.6922,4.7001,4.7045,0,0,0,4.6331,4.6354,4.6375,4.6389,4.6442,4.6528,4.6541,4.6591,4.6605,4.6667,4.6673,4.6918,4.6921,4.6996,4.7036,4.7114,0,0,0,4.6324,4.6448,4.6376,4.6515,4.6441,4.6581,4.654,4.6643,4.6707,4.667,4.6919,4.6923,4.6995,4.7031,4.7108,4.718,4.7211,0,0,4.6486,4.6468,4.6549,4.6488,4.6643,4.6561,4.6728,4.6776,4.6772,4.6872,4.6879,4.7003,4.7036,4.7112,4.7386,4.741,0,0,0,4.6603,4.6661,4.67,4.6762,4.6803,4.684,4.6863,4.688,4.6965,4.6827,4.7053,4.7072,4.7116,4.715,4.7171,4.7207,4.6939,4.6939,4.6938,4.6844,4.6833,4.6965,4.6969,4.7029,4.705,4.7096,4.7122,4.7094,4.7147,4.7177,4.7344,4.7384,4.7399,4.7437,4.7215,4.7215,4.7216,4.7216,4.7077,4.7156,4.7115,4.7228,4.7215,4.7309,4.7332,4.7309,4.7391,4.7321,4.736,4.7283,4.7427,4.746,4.7222,4.7221,4.722,4.722,4.7219,4.7232,4.7268,4.7289,4.7375,4.7443,4.744,4.7522,4.7507,4.7493,4.7531,4.7559,4.7557,4.7552,4.7546,4.7547,4.7547,4.7548,4.7548,4.7548,4.7385,4.7405,4.7477,4.753,4.7566,4.7611,4.7632,4.7667,4.77,4.7682,4.7682,4.7646,4.7445,4.7393,4.7557,4.7556,4.7555,4.7554,4.7553,4.7622,4.7566,4.7677,4.7714,4.7773,4.7839,4.7819,4.7889,4.7915,4.7955,4.7911,4.7765,4.7745,4.7728,4.7685,4.7915,4.7915,4.7915,4.7915,4.7752,4.7741,4.785,4.7908,4.7964,4.7957,4.8078,4.8094,4.8102,4.8116,4.8081,4.8023,4.8006,4.7996,4.7973,4.7933,4.8221,4.8221,4.8221,4.7896,4.7889,4.7998,4.8006,4.805,4.8088,4.8201,4.8267,4.8263,4.8233,4.8126,4.8113,4.802,4.7991,4.7958,4.7923,4.7848,0,0]}]]